Date,Time,Wetness (Wet Dry or Ice),Wind Speed (m/s),Temperature (C),Humidity (%),Pressure (mb),Radiation (W/m^2)
2020-11-15,23:10:00,DRY,9.07,9.03,36.7,776.33,1.4
2020-11-15,23:15:00,DRY,8.95,9.10,37.0,777.00,1.2
2020-11-15,23:20:00,DRY,10.33,8.97,38.7,777.00,1.2
2020-11-15,23:25:00,DRY,6.70,9.05,38.5,777.00,1.4
2020-11-15,23:30:00,DRY,6.80,8.97,40.3,776.33,1.2
2020-11-15,23:35:00,DRY,7.50,8.75,41.5,777.00,1.2
2020-11-15,23:40:00,DRY,9.67,8.63,42.3,776.33,1.4
2020-11-15,23:45:00,DRY,7.65,8.95,42.5,777.00,1.2
2020-11-15,23:50:00,DRY,10.53,8.73,42.7,776.67,1.5
2020-11-15,23:55:00,DRY,7.85,8.35,44.5,776.50,1.2
2020-11-16,00:00:00,DRY,7.53,8.57,45.7,776.67,0.8
2020-11-16,00:05:00,DRY,9.15,8.65,44.5,777.00,0.9
2020-11-16,00:10:00,DRY,8.47,8.27,45.7,777.00,1.0
2020-11-16,00:15:00,DRY,6.75,8.25,45.0,776.50,1.1
2020-11-16,00:20:00,DRY,9.77,8.37,45.7,776.67,1.3
2020-11-16,00:25:00,DRY,8.25,8.40,45.0,776.50,1.1
2020-11-16,00:30:00,DRY,10.43,8.50,46.0,776.33,1.4
2020-11-16,00:35:00,DRY,11.50,8.70,48.0,776.50,1.2
2020-11-16,00:40:00,DRY,9.53,8.70,50.0,776.67,1.2
2020-11-16,00:45:00,DRY,8.60,8.60,49.0,777.00,1.4
2020-11-16,00:50:00,DRY,8.73,8.70,50.3,776.33,1.0
2020-11-16,00:55:00,DRY,9.80,8.60,50.5,776.00,1.2
2020-11-16,01:00:00,DRY,6.63,8.50,52.3,776.67,1.3
2020-11-16,01:05:00,DRY,9.65,8.45,52.5,776.00,1.3
2020-11-16,01:10:00,DRY,7.30,8.53,53.3,776.00,1.7
2020-11-16,01:15:00,DRY,9.90,8.45,54.5,776.00,1.7
2020-11-16,01:20:00,DRY,6.73,8.47,55.7,776.33,1.6
2020-11-16,01:25:00,DRY,7.70,8.35,56.5,776.00,1.3
2020-11-16,01:30:00,DRY,9.47,8.47,56.3,776.00,1.3
2020-11-16,01:35:00,DRY,7.80,8.85,56.0,776.50,1.4
2020-11-16,01:40:00,DRY,10.30,8.70,57.0,776.33,1.6
2020-11-16,01:45:00,DRY,4.70,8.80,56.5,776.00,1.6
2020-11-16,01:50:00,DRY,9.20,8.60,57.0,776.33,1.5
2020-11-16,01:55:00,DRY,8.65,8.35,59.0,776.00,1.2
2020-11-16,02:00:00,DRY,8.13,8.77,53.3,776.33,1.4
2020-11-16,02:05:00,DRY,9.15,8.75,57.5,776.50,1.1
2020-11-16,02:10:00,DRY,7.53,8.63,56.7,776.00,1.4
2020-11-16,02:15:00,DRY,6.40,8.40,58.0,776.00,1.4
2020-11-16,02:20:00,DRY,9.80,8.30,59.7,776.00,1.2
2020-11-16,02:25:00,DRY,7.05,8.45,58.0,776.50,1.5
2020-11-16,02:30:00,DRY,7.83,8.43,59.7,776.00,1.4
2020-11-16,02:35:00,DRY,7.70,8.20,61.0,776.00,1.1
2020-11-16,02:40:00,DRY,8.67,8.60,58.3,776.00,1.2
2020-11-16,02:45:00,DRY,6.95,8.70,55.0,776.00,1.1
2020-11-16,02:50:00,DRY,6.70,8.40,60.0,776.00,1.7
2020-11-16,02:55:00,DRY,4.75,8.25,61.5,776.00,1.1
2020-11-16,03:00:00,DRY,6.60,8.43,59.3,776.00,1.4
2020-11-16,03:05:00,DRY,5.65,8.20,60.5,776.50,1.2
2020-11-16,03:10:00,DRY,8.50,7.93,64.3,776.00,1.3
2020-11-16,03:15:00,DRY,6.05,8.45,56.0,776.00,1.1
2020-11-16,03:20:00,DRY,7.90,8.33,62.3,776.00,1.5
2020-11-16,03:25:00,DRY,6.65,8.15,64.5,776.00,1.1
2020-11-16,03:30:00,DRY,5.80,8.37,62.7,776.00,1.4
2020-11-16,03:35:00,DRY,9.90,8.35,64.5,776.00,1.4
2020-11-16,03:40:00,DRY,6.47,8.33,64.0,776.00,1.3
2020-11-16,03:45:00,DRY,8.75,8.35,63.5,776.00,0.8
2020-11-16,03:50:00,DRY,5.27,8.20,63.3,776.00,1.4
2020-11-16,03:55:00,DRY,5.65,8.30,63.5,776.00,1.1
2020-11-16,04:00:00,DRY,7.63,8.07,63.3,776.00,1.4
2020-11-16,04:05:00,DRY,5.95,8.00,64.5,776.00,1.3
2020-11-16,04:10:00,DRY,6.40,8.10,63.3,776.00,1.3
2020-11-16,04:15:00,DRY,6.40,8.20,62.5,776.00,1.4
2020-11-16,04:20:00,DRY,5.50,8.10,63.7,776.00,0.9
2020-11-16,04:25:00,DRY,6.25,8.00,63.0,776.00,1.4
2020-11-16,04:30:00,DRY,6.40,8.10,61.0,776.00,1.4
2020-11-16,04:35:00,DRY,5.55,8.05,63.0,776.00,1.6
2020-11-16,04:40:00,DRY,4.10,7.93,63.7,776.00,1.9
2020-11-16,04:45:00,DRY,3.85,8.00,63.0,776.00,1.1
2020-11-16,04:50:00,DRY,4.50,7.97,62.7,776.00,1.8
2020-11-16,04:55:00,DRY,7.20,8.35,56.0,776.00,2.0
2020-11-16,05:00:00,DRY,6.10,8.33,58.3,776.00,1.5
2020-11-16,05:05:00,DRY,6.65,8.35,56.5,776.00,1.9
2020-11-16,05:10:00,DRY,4.77,8.43,54.7,776.00,1.0
2020-11-16,05:15:00,DRY,8.00,8.35,53.5,776.00,1.2
2020-11-16,05:20:00,DRY,5.63,8.77,47.3,776.00,1.4
2020-11-16,05:25:00,DRY,8.15,8.80,48.0,776.00,1.3
2020-11-16,05:30:00,DRY,8.50,8.97,47.3,776.00,1.4
2020-11-16,05:35:00,DRY,6.25,9.00,45.0,776.00,1.1
2020-11-16,05:40:00,DRY,6.00,9.17,42.0,776.00,1.6
2020-11-16,05:45:00,DRY,5.80,9.10,44.0,776.00,1.2
2020-11-16,05:50:00,DRY,6.60,9.00,43.7,776.00,1.2
2020-11-16,05:55:00,DRY,7.55,8.90,44.5,776.00,1.1
2020-11-16,06:00:00,DRY,7.70,8.87,44.7,776.00,1.1
2020-11-16,06:05:00,DRY,9.10,8.95,43.5,776.00,1.4
2020-11-16,06:10:00,DRY,8.17,8.90,43.3,776.00,1.0
2020-11-16,06:15:00,DRY,8.90,9.10,41.5,776.00,1.1
2020-11-16,06:20:00,DRY,6.73,9.03,41.3,776.00,1.4
2020-11-16,06:25:00,DRY,8.10,9.00,41.0,776.00,0.9
2020-11-16,06:30:00,DRY,7.47,9.07,40.0,776.00,1.7
2020-11-16,06:35:00,DRY,4.35,8.85,43.0,776.00,1.5
2020-11-16,06:40:00,DRY,8.17,8.77,41.7,776.00,1.2
2020-11-16,06:45:00,DRY,5.35,9.00,39.5,776.00,0.7
2020-11-16,06:50:00,DRY,7.57,8.87,41.3,776.33,1.4
2020-11-16,06:55:00,DRY,6.25,8.70,41.5,777.00,1.4
2020-11-16,07:00:00,DRY,6.53,8.73,42.3,776.67,1.2
2020-11-16,07:05:00,DRY,3.90,8.60,42.0,777.00,2.0
2020-11-16,07:10:00,DRY,5.53,8.77,41.0,777.00,1.0
2020-11-16,07:15:00,DRY,6.50,8.95,39.0,777.00,1.4
2020-11-16,07:20:00,DRY,8.87,8.90,39.3,776.67,1.5
2020-11-16,07:25:00,DRY,6.65,9.35,36.5,777.00,2.0
2020-11-16,07:30:00,DRY,7.10,9.20,38.0,777.00,4.2
2020-11-16,07:35:00,DRY,7.95,9.05,39.5,777.00,7.0
2020-11-16,07:40:00,DRY,4.93,8.80,40.3,777.00,9.5
2020-11-16,07:45:00,DRY,4.55,8.65,42.0,777.00,17.5
2020-11-16,07:50:00,DRY,4.67,8.67,41.0,777.00,22.1
2020-11-16,07:55:00,DRY,3.65,8.65,41.0,777.00,24.5
2020-11-16,08:00:00,DRY,4.17,8.67,41.3,777.00,30.1
2020-11-16,08:05:00,DRY,5.90,8.80,39.5,777.00,33.0
2020-11-16,08:10:00,DRY,5.57,9.00,39.7,777.00,34.7
2020-11-16,08:15:00,DRY,3.65,8.75,41.0,777.50,58.1
2020-11-16,08:20:00,DRY,4.23,8.73,41.0,777.33,55.6
2020-11-16,08:25:00,DRY,7.30,8.90,39.5,778.00,43.0
2020-11-16,08:30:00,DRY,5.80,8.87,39.0,777.67,50.6
2020-11-16,08:35:00,DRY,6.05,8.95,39.0,778.00,64.0
2020-11-16,08:40:00,DRY,5.97,8.87,40.0,778.00,85.3
2020-11-16,08:45:00,DRY,2.80,8.80,40.0,778.00,108.2
2020-11-16,08:50:00,DRY,5.13,9.00,39.0,778.00,123.1
2020-11-16,08:55:00,DRY,3.20,9.00,39.0,778.00,122.8
2020-11-16,09:00:00,DRY,7.37,9.17,37.3,778.00,128.8
2020-11-16,09:05:00,DRY,5.75,9.35,36.5,778.00,134.9
2020-11-16,09:10:00,DRY,5.67,9.40,36.7,778.00,127.9
2020-11-16,09:15:00,DRY,5.00,9.45,36.0,778.00,143.8
2020-11-16,09:20:00,DRY,5.07,9.50,35.7,778.00,166.9
2020-11-16,09:25:00,DRY,6.20,9.40,36.5,778.00,197.2
2020-11-16,09:30:00,DRY,3.27,9.27,38.0,778.00,184.7
2020-11-16,09:35:00,DRY,3.15,9.15,38.0,778.00,205.4
2020-11-16,09:40:00,DRY,2.73,9.30,37.7,778.00,216.3
2020-11-16,09:45:00,DRY,1.55,9.50,36.0,778.50,201.7
2020-11-16,09:50:00,DRY,2.40,9.60,36.0,779.00,278.6
2020-11-16,09:55:00,DRY,3.10,9.75,36.0,778.50,242.1
2020-11-16,10:00:00,DRY,3.63,9.87,35.3,779.00,346.7
2020-11-16,10:05:00,DRY,4.50,9.80,35.5,779.00,425.8
2020-11-16,10:10:00,DRY,3.97,9.90,35.3,779.00,387.2
2020-11-16,10:15:00,DRY,2.70,10.05,35.0,779.00,388.8
2020-11-16,10:20:00,DRY,6.17,10.07,35.3,779.00,367.4
2020-11-16,10:25:00,DRY,6.35,10.10,34.5,779.00,362.2
2020-11-16,10:30:00,DRY,5.10,10.13,35.0,779.00,390.3
2020-11-16,10:35:00,DRY,8.65,10.10,35.5,779.00,436.1
2020-11-16,10:40:00,DRY,4.93,10.10,36.0,779.00,339.9
2020-11-16,10:45:00,DRY,4.20,10.10,36.0,779.00,341.4
2020-11-16,10:50:00,DRY,4.97,10.10,36.0,779.00,331.3
2020-11-16,10:55:00,DRY,3.85,10.10,36.0,779.00,321.4
2020-11-16,11:00:00,DRY,5.10,10.10,36.7,779.00,330.2
2020-11-16,11:05:00,DRY,4.15,10.15,36.5,779.00,396.0
2020-11-16,11:10:00,DRY,3.70,10.27,36.0,779.00,398.5
2020-11-16,11:15:00,DRY,6.80,10.40,36.0,779.00,605.0
2020-11-16,11:20:00,DRY,4.93,10.47,35.7,779.00,535.8
2020-11-16,11:25:00,DRY,6.10,10.45,36.5,779.00,319.6
2020-11-16,11:30:00,DRY,4.30,10.47,36.0,779.00,601.6
2020-11-16,11:35:00,DRY,4.30,10.70,36.0,779.00,479.4
2020-11-16,11:40:00,DRY,2.67,10.77,36.7,779.00,607.8
2020-11-16,11:45:00,DRY,3.20,10.80,36.0,779.00,673.0
2020-11-16,11:50:00,DRY,5.57,10.93,36.3,779.00,833.9
2020-11-16,11:55:00,DRY,2.40,11.05,37.0,779.00,824.0
2020-11-16,12:00:00,DRY,4.90,11.00,35.7,779.00,816.7
2020-11-16,12:05:00,DRY,3.80,11.10,38.0,779.00,818.4
2020-11-16,12:10:00,DRY,3.17,11.13,36.3,779.00,823.6
2020-11-16,12:15:00,DRY,5.90,11.20,37.0,779.00,829.1
2020-11-16,12:20:00,DRY,6.70,11.50,35.5,779.00,801.8
2020-11-16,12:25:00,DRY,3.25,11.30,37.5,779.00,838.9
2020-11-16,12:30:00,DRY,4.90,11.47,38.0,779.00,837.6
2020-11-16,12:35:00,DRY,4.95,11.65,36.5,779.00,833.3
2020-11-16,12:40:00,DRY,2.23,11.47,37.7,779.00,833.4
2020-11-16,12:45:00,DRY,3.15,11.55,39.5,779.00,834.1
2020-11-16,12:50:00,DRY,3.03,11.67,39.0,779.00,832.0
2020-11-16,12:55:00,DRY,4.45,11.95,37.0,779.00,834.5
2020-11-16,13:00:00,DRY,2.90,11.93,39.0,779.00,835.4
2020-11-16,13:05:00,DRY,4.40,12.00,38.5,779.00,824.5
2020-11-16,13:10:00,DRY,3.73,11.57,40.3,779.00,825.6
2020-11-16,13:15:00,DRY,3.70,11.55,41.0,779.00,829.0
2020-11-16,13:20:00,DRY,3.00,11.67,41.3,778.67,824.7
2020-11-16,13:25:00,DRY,3.90,11.60,43.0,779.00,823.2
2020-11-16,13:30:00,DRY,3.60,11.70,42.0,779.00,820.7
2020-11-16,13:35:00,DRY,3.80,11.30,44.0,778.00,814.2
2020-11-16,13:40:00,DRY,2.60,11.57,43.0,779.00,811.9
2020-11-16,13:45:00,DRY,3.60,11.40,44.5,779.00,806.2
2020-11-16,13:50:00,DRY,3.83,11.63,45.0,778.67,800.8
2020-11-16,13:55:00,DRY,4.00,11.65,43.5,778.50,795.1
2020-11-16,14:00:00,DRY,2.93,11.57,44.0,778.67,787.8
2020-11-16,14:05:00,DRY,3.85,11.30,44.0,778.00,780.5
2020-11-16,14:10:00,DRY,3.67,11.30,44.0,778.00,774.3
2020-11-16,14:15:00,DRY,3.65,11.40,47.0,778.00,767.3
2020-11-16,14:20:00,DRY,4.00,11.20,43.3,778.00,758.2
2020-11-16,14:25:00,DRY,3.40,11.15,45.5,778.00,750.5
2020-11-16,14:30:00,DRY,4.57,11.53,43.3,778.00,740.5
2020-11-16,14:35:00,DRY,2.90,11.25,50.0,778.00,731.4
2020-11-16,14:40:00,DRY,3.43,11.30,48.7,778.00,720.7
2020-11-16,14:45:00,DRY,4.85,11.30,44.0,778.00,710.5
2020-11-16,14:50:00,DRY,5.27,11.23,42.7,778.00,698.8
2020-11-16,14:55:00,DRY,5.30,11.00,45.0,778.00,687.6
2020-11-16,15:00:00,DRY,4.20,11.07,46.3,778.00,675.4
2020-11-16,15:05:00,DRY,3.10,11.15,47.5,778.00,662.5
2020-11-16,15:10:00,DRY,3.53,11.33,47.3,778.00,648.8
2020-11-16,15:15:00,DRY,4.50,11.50,46.5,778.00,636.7
2020-11-16,15:20:00,DRY,2.03,11.20,47.7,778.00,621.7
2020-11-16,15:25:00,DRY,2.65,11.15,50.0,778.00,606.8
2020-11-16,15:30:00,DRY,2.93,11.03,50.3,778.00,592.7
2020-11-16,15:35:00,DRY,2.85,11.00,49.5,778.00,577.0
2020-11-16,15:40:00,DRY,1.63,11.07,48.3,778.00,562.6
2020-11-16,15:45:00,DRY,2.65,11.25,47.0,778.00,546.8
2020-11-16,15:50:00,DRY,3.97,10.97,45.0,778.00,528.8
2020-11-16,15:55:00,DRY,3.05,11.00,45.0,778.00,512.3
2020-11-16,16:00:00,DRY,2.77,10.93,48.7,778.00,495.9
2020-11-16,16:05:00,DRY,1.35,11.00,49.0,778.00,477.6
2020-11-16,16:10:00,DRY,2.87,10.97,48.3,778.00,459.5
2020-11-16,16:15:00,DRY,3.50,10.75,50.0,778.00,440.0
2020-11-16,16:20:00,DRY,2.20,10.63,51.3,778.00,421.8
2020-11-16,16:25:00,DRY,2.45,10.65,51.0,778.00,403.4
2020-11-16,16:30:00,DRY,2.67,10.63,49.7,778.00,384.4
2020-11-16,16:35:00,DRY,3.20,10.45,50.0,778.00,366.4
2020-11-16,16:40:00,DRY,2.83,10.63,49.3,778.00,346.4
2020-11-16,16:45:00,DRY,3.30,10.40,50.5,778.00,326.7
2020-11-16,16:50:00,DRY,3.60,10.47,49.7,778.00,306.2
2020-11-16,16:55:00,DRY,3.55,10.35,49.5,778.00,286.6
2020-11-16,17:00:00,DRY,4.27,10.30,48.3,778.00,267.2
2020-11-16,17:05:00,DRY,3.90,10.35,48.0,778.00,247.3
2020-11-16,17:10:00,DRY,3.63,10.27,48.0,778.00,228.0
2020-11-16,17:15:00,DRY,3.00,10.20,47.0,778.00,209.4
2020-11-16,17:20:00,DRY,5.13,10.13,45.7,778.00,168.6
2020-11-16,17:25:00,DRY,5.95,10.10,45.0,778.00,129.3
2020-11-16,17:30:00,DRY,5.47,10.00,46.3,778.00,143.8
2020-11-16,17:35:00,DRY,1.75,10.00,45.5,778.00,128.6
2020-11-16,17:40:00,DRY,3.27,9.93,45.7,778.00,104.4
2020-11-16,17:45:00,DRY,3.25,9.85,43.5,778.00,81.2
2020-11-16,17:50:00,DRY,5.30,9.83,44.3,778.00,61.4
2020-11-16,17:55:00,DRY,7.00,9.75,46.0,778.00,45.5
2020-11-16,18:00:00,DRY,3.70,9.67,44.7,778.00,32.6
2020-11-16,18:05:00,DRY,1.75,9.55,43.5,778.00,21.9
2020-11-16,18:10:00,DRY,4.20,9.43,45.0,778.00,15.8
2020-11-16,18:15:00,DRY,3.85,9.40,44.0,778.00,8.8
2020-11-16,18:20:00,DRY,3.53,9.47,42.7,778.00,6.4
2020-11-16,18:25:00,DRY,2.40,9.50,42.5,778.00,4.5
2020-11-16,18:30:00,DRY,2.43,9.37,43.7,778.00,2.0
2020-11-16,18:35:00,DRY,2.75,9.50,43.0,778.00,1.4
2020-11-16,18:40:00,DRY,2.50,9.47,43.3,778.00,1.7
2020-11-16,18:45:00,DRY,2.45,9.50,43.0,778.00,1.5
2020-11-16,18:50:00,DRY,2.77,9.43,43.0,778.00,0.7
2020-11-16,18:55:00,DRY,2.45,9.50,43.0,778.00,1.6
2020-11-16,19:00:00,DRY,4.53,9.60,42.0,778.00,1.1
2020-11-16,19:05:00,DRY,4.50,9.70,41.5,778.00,1.1
2020-11-16,19:10:00,DRY,5.93,9.60,42.3,778.00,1.1
2020-11-16,19:15:00,DRY,6.10,9.60,42.0,778.00,0.9
2020-11-16,19:20:00,DRY,4.43,9.60,42.7,778.33,0.8
2020-11-16,19:25:00,DRY,4.20,9.60,43.0,778.00,1.1
2020-11-16,19:30:00,DRY,7.80,9.60,42.7,778.00,1.2
2020-11-16,19:35:00,DRY,7.25,9.50,43.5,778.00,0.9
2020-11-16,19:40:00,DRY,6.40,9.53,43.3,778.67,1.0
2020-11-16,19:45:00,DRY,4.65,9.50,43.5,778.50,0.8
2020-11-16,19:50:00,DRY,7.27,9.63,42.7,778.67,1.1
2020-11-16,19:55:00,DRY,3.95,9.40,44.0,778.50,0.6
2020-11-16,20:00:00,DRY,5.57,9.53,43.7,778.67,1.1
2020-11-16,20:05:00,DRY,5.90,9.70,43.0,779.00,0.9
2020-11-16,20:10:00,DRY,6.70,9.50,43.7,778.67,1.0
2020-11-16,20:15:00,DRY,3.15,9.50,44.0,779.00,0.5
2020-11-16,20:20:00,DRY,4.90,9.47,44.3,779.00,1.2
2020-11-16,20:25:00,DRY,4.15,9.50,44.0,779.00,1.1
2020-11-16,20:30:00,DRY,6.40,9.50,44.0,779.00,1.1
2020-11-16,20:35:00,DRY,4.75,9.50,44.0,779.00,1.0
2020-11-16,20:40:00,DRY,5.60,9.60,43.7,779.00,1.3
2020-11-16,20:45:00,DRY,4.40,9.60,43.5,779.00,1.2
2020-11-16,20:50:00,DRY,5.03,9.73,42.7,779.00,0.9
2020-11-16,20:55:00,DRY,3.35,9.65,43.0,779.00,0.9
2020-11-16,21:00:00,DRY,5.03,9.70,43.0,779.00,1.4
2020-11-16,21:05:00,DRY,2.70,9.70,42.5,779.00,0.7
2020-11-16,21:10:00,DRY,3.97,9.70,43.0,779.00,1.0
2020-11-16,21:15:00,DRY,4.05,9.80,41.5,779.00,1.7
2020-11-16,21:20:00,DRY,2.80,9.83,42.0,779.00,1.2
2020-11-16,21:25:00,DRY,3.60,9.65,43.0,779.00,1.2
2020-11-16,21:30:00,DRY,5.83,9.77,42.0,779.00,1.0
2020-11-16,21:35:00,DRY,3.55,9.80,42.0,779.00,1.5
2020-11-16,21:40:00,DRY,5.17,9.83,41.7,779.00,1.3
2020-11-16,21:45:00,DRY,3.70,9.70,42.0,779.00,1.0
2020-11-16,21:50:00,DRY,3.20,9.87,41.3,779.00,1.6
2020-11-16,21:55:00,DRY,4.45,9.85,41.0,779.00,1.0
2020-11-16,22:00:00,DRY,2.97,9.87,41.0,779.00,1.3
2020-11-16,22:05:00,DRY,4.05,9.90,41.0,779.00,1.4
2020-11-16,22:10:00,DRY,4.03,9.93,41.0,779.00,1.5
2020-11-16,22:15:00,DRY,4.40,9.80,41.0,779.00,1.1
2020-11-16,22:20:00,DRY,4.47,10.00,41.3,779.33,1.0
2020-11-16,22:25:00,DRY,5.00,10.05,41.0,779.00,1.1
2020-11-16,22:30:00,DRY,4.67,9.87,42.0,779.00,1.4
2020-11-16,22:35:00,DRY,2.15,9.90,43.0,779.00,1.4
2020-11-16,22:40:00,DRY,4.73,9.83,42.7,779.00,1.2
2020-11-16,22:45:00,DRY,3.35,9.80,43.0,779.00,0.6
2020-11-16,22:50:00,DRY,5.03,9.90,42.7,779.00,1.5
2020-11-16,22:55:00,DRY,4.55,9.80,43.5,779.00,1.0
2020-11-16,23:00:00,DRY,3.83,9.83,43.3,779.00,1.3
2020-11-16,23:05:00,DRY,4.10,9.90,43.0,779.00,0.9
2020-11-16,23:10:00,DRY,2.60,9.73,43.7,779.00,1.1
2020-11-16,23:15:00,DRY,4.45,10.00,43.5,779.00,1.6
2020-11-16,23:20:00,DRY,3.40,9.87,43.0,779.00,1.3
2020-11-16,23:25:00,DRY,2.80,9.80,44.0,779.00,1.6
2020-11-16,23:30:00,DRY,3.57,9.80,43.3,779.00,1.0
2020-11-16,23:35:00,DRY,3.45,9.75,44.0,779.00,0.8
2020-11-16,23:40:00,DRY,1.53,9.70,44.0,779.00,0.8
2020-11-16,23:45:00,DRY,2.50,9.70,44.0,779.00,1.0
2020-11-16,23:50:00,DRY,2.93,9.77,43.7,779.00,1.1
2020-11-16,23:55:00,DRY,7.10,9.70,44.0,779.00,1.1
2020-11-17,00:00:00,DRY,3.07,9.67,44.0,779.00,1.7
2020-11-17,00:05:00,DRY,4.70,9.70,44.0,779.00,1.2
2020-11-17,00:10:00,DRY,2.70,9.70,43.7,779.00,1.1
2020-11-17,00:15:00,DRY,2.35,9.80,43.5,779.00,1.8
2020-11-17,00:20:00,DRY,4.63,9.73,44.0,779.00,1.4
2020-11-17,00:25:00,DRY,6.10,9.75,44.0,779.00,1.0
2020-11-17,00:30:00,DRY,5.03,9.80,44.0,779.00,1.2
2020-11-17,00:35:00,DRY,2.75,9.75,44.0,779.00,0.9
2020-11-17,00:40:00,DRY,4.17,9.77,43.7,779.00,1.3
2020-11-17,00:45:00,DRY,3.85,9.70,44.5,779.00,0.9
2020-11-17,00:50:00,DRY,3.50,9.70,44.3,779.00,1.7
2020-11-17,00:55:00,DRY,3.40,9.55,45.0,779.00,1.1
2020-11-17,01:00:00,DRY,3.83,9.70,44.0,778.67,1.6
2020-11-17,01:05:00,DRY,1.90,9.70,44.5,779.00,1.4
2020-11-17,01:10:00,DRY,4.00,9.60,44.7,778.67,1.2
2020-11-17,01:15:00,DRY,4.70,9.65,44.0,779.00,1.1
2020-11-17,01:20:00,DRY,3.10,9.60,45.0,779.00,1.3
2020-11-17,01:25:00,DRY,5.55,9.70,44.0,779.00,1.8
2020-11-17,01:30:00,DRY,4.93,9.67,44.3,779.00,2.1
2020-11-17,01:35:00,DRY,1.85,9.60,45.0,779.00,1.2
2020-11-17,01:40:00,DRY,4.43,9.57,45.0,779.00,1.2
2020-11-17,01:45:00,DRY,6.10,9.60,45.0,779.00,1.0
2020-11-17,01:50:00,DRY,3.00,9.67,44.7,778.67,1.4
2020-11-17,01:55:00,DRY,4.20,9.60,44.5,779.00,0.8
2020-11-17,02:00:00,DRY,5.27,9.60,45.0,778.33,1.2
2020-11-17,02:05:00,DRY,5.35,9.60,45.0,779.00,1.2
2020-11-17,02:10:00,DRY,2.47,9.53,45.0,779.00,1.5
2020-11-17,02:15:00,DRY,5.75,9.50,45.0,779.00,1.2
2020-11-17,02:20:00,DRY,4.13,9.60,44.7,779.00,1.3
2020-11-17,02:25:00,DRY,6.60,9.65,44.5,779.00,1.2
2020-11-17,02:30:00,DRY,5.03,9.53,45.0,778.33,1.2
2020-11-17,02:35:00,DRY,7.40,9.55,44.5,778.00,1.4
2020-11-17,02:40:00,DRY,4.70,9.50,45.0,778.00,1.1
2020-11-17,02:45:00,DRY,8.10,9.55,45.0,778.00,1.1
2020-11-17,02:50:00,DRY,6.27,9.57,45.0,778.00,1.2
2020-11-17,02:55:00,DRY,6.00,9.55,45.0,778.00,1.4
2020-11-17,03:00:00,DRY,5.03,9.67,44.0,778.00,1.8
2020-11-17,03:05:00,DRY,5.60,9.45,45.0,778.00,2.1
2020-11-17,03:10:00,DRY,6.83,9.53,45.0,778.00,1.4
2020-11-17,03:15:00,DRY,8.20,9.55,45.0,778.00,1.1
2020-11-17,03:20:00,DRY,8.63,9.50,45.0,778.00,1.1
2020-11-17,03:25:00,DRY,6.90,9.50,45.0,778.00,1.4
2020-11-17,03:30:00,DRY,7.27,9.57,44.7,778.00,1.4
2020-11-17,03:35:00,DRY,6.75,9.55,45.0,778.00,1.1
2020-11-17,03:40:00,DRY,5.97,9.53,45.0,778.00,1.1
2020-11-17,03:45:00,DRY,5.55,9.50,45.0,778.00,1.5
2020-11-17,03:50:00,DRY,7.17,9.53,45.0,778.00,1.2
2020-11-17,03:55:00,DRY,6.85,9.60,45.0,778.00,1.3
2020-11-17,04:00:00,DRY,6.33,9.53,45.0,778.00,0.8
2020-11-17,04:05:00,DRY,5.35,9.45,45.5,778.00,1.4
2020-11-17,04:10:00,DRY,5.23,9.50,45.3,778.00,1.3
2020-11-17,04:15:00,DRY,4.65,9.60,45.0,778.00,1.0
2020-11-17,04:20:00,DRY,4.90,9.53,45.0,778.00,1.3
2020-11-17,04:25:00,DRY,3.85,9.60,45.0,778.00,0.9
2020-11-17,04:30:00,DRY,3.80,9.57,45.0,778.00,1.2
2020-11-17,04:35:00,DRY,6.55,9.60,45.0,778.00,1.6
2020-11-17,04:40:00,DRY,4.70,9.60,45.0,778.00,1.3
2020-11-17,04:45:00,DRY,4.70,9.55,45.0,778.00,1.2
2020-11-17,04:50:00,DRY,3.30,9.53,45.0,778.00,1.3
2020-11-17,04:55:00,DRY,3.05,9.50,45.0,778.00,0.9
2020-11-17,05:00:00,DRY,3.40,9.50,45.0,778.00,1.4
2020-11-17,05:05:00,DRY,1.60,9.45,45.0,778.00,0.6
2020-11-17,05:10:00,DRY,4.10,9.43,45.0,778.33,1.3
2020-11-17,05:15:00,DRY,7.05,9.40,45.5,778.00,1.0
2020-11-17,05:20:00,DRY,5.13,9.43,45.3,778.00,1.3
2020-11-17,05:25:00,DRY,6.15,9.30,46.0,778.00,1.0
2020-11-17,05:30:00,DRY,7.63,9.23,46.3,778.00,1.1
2020-11-17,05:35:00,DRY,5.30,9.35,45.5,778.00,0.8
2020-11-17,05:40:00,DRY,4.13,9.37,45.7,778.00,1.2
2020-11-17,05:45:00,DRY,2.95,9.30,46.0,778.00,0.9
2020-11-17,05:50:00,DRY,4.23,9.20,46.7,778.00,1.5
2020-11-17,05:55:00,DRY,3.75,9.20,46.0,778.00,1.4
2020-11-17,06:00:00,DRY,4.57,9.30,45.7,778.00,1.2
2020-11-17,06:05:00,DRY,4.90,9.35,46.0,778.00,1.1
2020-11-17,06:10:00,DRY,4.03,9.27,46.3,778.33,0.9
2020-11-17,06:15:00,DRY,1.25,9.25,46.0,778.00,0.9
2020-11-17,06:20:00,DRY,2.50,9.33,45.7,778.67,1.1
2020-11-17,06:25:00,DRY,1.70,9.30,46.0,779.00,1.2
2020-11-17,06:30:00,DRY,3.43,9.27,45.7,778.67,1.4
2020-11-17,06:35:00,DRY,3.25,9.35,45.5,778.00,1.3
2020-11-17,06:40:00,DRY,6.67,9.33,45.7,778.00,1.7
2020-11-17,06:45:00,DRY,4.80,9.45,45.0,778.00,1.5
2020-11-17,06:50:00,DRY,7.57,9.40,45.7,778.00,1.4
2020-11-17,06:55:00,DRY,5.70,9.45,45.0,779.00,1.1
2020-11-17,07:00:00,WET,8.53,9.30,47.0,778.00,1.3
2020-11-17,07:05:00,DRY,7.05,9.30,46.5,778.50,1.6
2020-11-17,07:10:00,WET,4.97,9.40,46.0,779.00,1.3
2020-11-17,07:15:00,WET,5.25,9.40,47.5,779.00,1.5
2020-11-17,07:20:00,DRY,6.33,9.40,46.3,779.00,1.1
2020-11-17,07:25:00,DRY,4.70,9.35,46.0,779.00,2.0
2020-11-17,07:30:00,DRY,5.87,9.40,46.7,779.00,3.0
2020-11-17,07:35:00,DRY,6.40,9.45,47.0,779.00,4.3
2020-11-17,07:40:00,DRY,5.43,9.37,47.0,779.00,6.2
2020-11-17,07:45:00,DRY,3.15,9.30,47.0,779.00,8.9
2020-11-17,07:50:00,DRY,5.47,9.33,47.0,779.00,13.1
2020-11-17,07:55:00,DRY,4.90,9.30,47.0,779.00,16.9
2020-11-17,08:00:00,DRY,5.97,9.30,47.0,779.00,20.3
2020-11-17,08:05:00,DRY,3.30,9.20,47.0,779.00,24.4
2020-11-17,08:10:00,DRY,4.37,9.27,47.0,779.00,31.4
2020-11-17,08:15:00,DRY,4.45,9.30,47.0,779.00,35.4
2020-11-17,08:20:00,DRY,3.83,9.30,47.0,779.00,73.3
2020-11-17,08:25:00,DRY,5.45,9.30,47.0,779.00,94.6
2020-11-17,08:30:00,DRY,6.13,9.37,47.0,779.00,137.0
2020-11-17,08:35:00,DRY,5.05,9.40,47.0,779.00,196.6
2020-11-17,08:40:00,DRY,4.47,9.53,47.0,779.00,248.0
2020-11-17,08:45:00,DRY,6.60,9.65,47.0,779.00,295.9
2020-11-17,08:50:00,DRY,5.77,9.70,47.0,779.67,297.9
2020-11-17,08:55:00,DRY,4.80,9.80,47.0,779.00,356.2
2020-11-17,09:00:00,DRY,5.30,9.87,47.0,779.00,393.8
2020-11-17,09:05:00,DRY,4.55,10.05,46.5,779.50,441.0
2020-11-17,09:10:00,DRY,4.27,10.13,46.0,779.67,460.4
2020-11-17,09:15:00,DRY,3.60,10.10,46.5,779.00,356.2
2020-11-17,09:20:00,DRY,4.13,9.87,47.0,779.00,346.8
2020-11-17,09:25:00,DRY,3.85,10.05,47.0,780.00,538.5
2020-11-17,09:30:00,DRY,3.87,10.13,46.7,779.33,560.5
2020-11-17,09:35:00,DRY,5.00,10.15,46.5,780.00,564.9
2020-11-17,09:40:00,DRY,6.00,10.10,46.7,779.67,440.3
2020-11-17,09:45:00,DRY,5.75,10.15,46.0,780.00,608.6
2020-11-17,09:50:00,DRY,3.57,10.47,45.3,780.00,615.1
2020-11-17,09:55:00,DRY,5.20,10.60,45.0,780.00,623.6
2020-11-17,10:00:00,DRY,1.97,10.87,45.0,780.00,654.8
2020-11-17,10:05:00,DRY,2.25,11.15,45.0,780.00,682.0
2020-11-17,10:10:00,DRY,6.73,11.13,44.0,780.00,695.3
2020-11-17,10:15:00,DRY,4.45,11.15,44.0,780.00,710.4
2020-11-17,10:20:00,DRY,3.60,11.27,44.3,780.00,728.4
2020-11-17,10:25:00,DRY,3.75,11.40,44.5,780.00,751.0
2020-11-17,10:30:00,DRY,2.13,11.43,44.3,780.00,781.8
2020-11-17,10:35:00,DRY,2.05,11.55,45.0,780.00,754.7
2020-11-17,10:40:00,DRY,3.03,11.37,43.3,780.00,717.4
2020-11-17,10:45:00,DRY,2.25,11.50,45.0,780.00,716.0
2020-11-17,10:50:00,DRY,3.93,11.47,44.3,780.00,741.8
2020-11-17,10:55:00,DRY,2.00,11.70,45.5,780.00,768.2
2020-11-17,11:00:00,DRY,1.57,11.57,43.0,780.00,744.2
2020-11-17,11:05:00,DRY,3.15,11.45,44.0,780.00,743.0
2020-11-17,11:10:00,DRY,1.97,11.53,45.7,780.00,744.2
2020-11-17,11:15:00,DRY,2.35,11.55,44.0,780.00,746.1
2020-11-17,11:20:00,DRY,2.03,11.67,45.0,780.00,752.6
2020-11-17,11:25:00,DRY,3.50,11.65,45.5,780.00,759.0
2020-11-17,11:30:00,DRY,2.90,11.73,44.7,780.00,765.9
2020-11-17,11:35:00,DRY,1.80,11.65,45.0,780.00,773.6
2020-11-17,11:40:00,DRY,2.57,11.70,45.3,780.00,783.6
2020-11-17,11:45:00,DRY,1.95,11.60,44.5,780.00,789.5
2020-11-17,11:50:00,DRY,1.83,11.63,44.7,780.00,796.1
2020-11-17,11:55:00,DRY,3.20,11.70,45.0,780.00,802.1
2020-11-17,12:00:00,DRY,2.13,11.60,44.3,780.00,808.5
2020-11-17,12:05:00,DRY,2.75,11.55,45.5,780.00,813.3
2020-11-17,12:10:00,DRY,2.90,11.77,44.0,780.00,819.3
2020-11-17,12:15:00,DRY,1.95,11.70,45.5,780.00,823.2
2020-11-17,12:20:00,DRY,2.57,11.87,45.0,780.00,827.3
2020-11-17,12:25:00,DRY,1.85,11.90,44.5,780.00,829.3
2020-11-17,12:30:00,DRY,2.23,11.90,45.0,780.00,832.4
2020-11-17,12:35:00,DRY,1.50,11.80,46.5,780.00,834.7
2020-11-17,12:40:00,DRY,2.40,12.00,45.3,780.00,836.0
2020-11-17,12:45:00,DRY,1.45,12.00,45.5,780.00,833.8
2020-11-17,12:50:00,DRY,2.57,11.97,46.7,779.00,837.6
2020-11-17,12:55:00,DRY,1.40,12.15,44.5,779.50,836.5
2020-11-17,13:00:00,DRY,2.40,12.40,45.3,780.00,837.2
2020-11-17,13:05:00,DRY,1.85,12.45,44.0,779.50,835.6
2020-11-17,13:10:00,DRY,2.23,12.33,44.7,779.33,832.4
2020-11-17,13:15:00,DRY,1.45,12.10,47.0,779.50,833.0
2020-11-17,13:20:00,DRY,2.20,12.23,45.0,779.00,830.9
2020-11-17,13:25:00,DRY,2.80,12.25,45.0,779.00,827.1
2020-11-17,13:30:00,DRY,2.90,12.20,46.0,779.00,828.8
2020-11-17,13:35:00,DRY,2.70,11.80,47.0,779.00,821.2
2020-11-17,13:40:00,DRY,1.90,12.23,46.3,779.00,816.2
2020-11-17,13:45:00,DRY,1.90,12.20,47.0,779.00,812.0
2020-11-17,13:50:00,DRY,1.77,12.07,46.7,779.00,807.8
2020-11-17,13:55:00,DRY,3.45,12.10,46.5,779.00,801.1
2020-11-17,14:00:00,DRY,2.10,12.23,46.7,779.00,794.1